Weather History for Louisburg, NC

Change the Weather History Date:

Wednesday, November 2, 2011

  Actual Average (KRDU) Record (KRDU)
Temperature  
Mean Temperature 47 °F 56 °F  
Max Temperature 62 °F 68 °F 84 °F (1974)
Min Temperature 32 °F 44 °F 27 °F (1976)
Degree Days  
Heating Degree Days 18 9  
Month to date heating degree days 18  
Since 1 July heating degree days 207  
Cooling Degree Days 0 0  
Month to date cooling degree days 1  
Year to date cooling degree days 1721  
Moisture  
Dew Point 39 °F    
Average Humidity 79    
Maximum Humidity 100    
Minimum Humidity 43    
Precipitation  
Precipitation 0.00 in 0.10 in 1.37 in (1979)
Month to date precipitation 0.21  
Year to date precipitation 37.36  
Sea Level Pressure  
Sea Level Pressure 30.38 in    
Wind  
Wind Speed 0 mph (NNE)    
Max Wind Speed 4 mph    
Max Gust Speed -    
Visibility 9 miles    
Events      
T = Trace of Precipitation, MM = Missing Value Source: NWS Daily Summary

Daily Weather History Graph

Daily Weather History Graph

Search for Another Location

Airport:

Trip Planner

Search our weather history database for the weather conditions in past years. The results will help you decide how hot, cold, wet, or windy it might be!

Date:

Astronomy

Nov. 02, 2011 Rise Set
Actual Time 7:36 AM EDT 6:16 PM EDT
Civil Twilight 7:09 AM EDT 6:43 PM EDT
Nautical Twilight 6:39 AM EDT 7:13 PM EDT
Astronomical Twilight 6:09 AM EDT 7:43 PM EDT
Moon 1:55 PM EDT (11/2) No Moon Set
Length of Visible Light 11h 33m
Length of Day
10h 40m
Waxing Crescent, 50% of the Moon is Illuminated
Nov 2
Waxing Crescent
Nov 2
First Quarter
Nov 10
Full
Nov 18
Last Quarter
Nov 25
New

Hourly Weather History & Observations

Time (EDT) Temp. Windchill Dew Point Humidity Pressure Visibility Wind Dir Wind Speed Gust Speed Precip Events Conditions
12:35 AM 36.7 °F - 36.7 °F 100% 30.35 in 5.0 mi Calm Calm - N/A   Clear
12:55 AM 36.5 °F - 36.5 °F 100% 30.35 in 7.0 mi Calm Calm - N/A   Clear
1:35 AM 35.6 °F - 35.6 °F 100% 30.35 in 10.0 mi Calm Calm - N/A   Clear
1:55 AM 35.1 °F - 35.1 °F 100% 30.36 in 7.0 mi Calm Calm - N/A   Clear
2:15 AM 34.9 °F - 34.9 °F 100% 30.36 in 10.0 mi Calm Calm - N/A   Clear
2:35 AM 34.7 °F - 34.7 °F 100% 30.36 in 7.0 mi Calm Calm - N/A   Clear
2:55 AM 34.7 °F - 34.7 °F 100% 30.36 in 5.0 mi Calm Calm - N/A   Clear
3:15 AM 34.3 °F - 34.3 °F 100% 30.36 in 7.0 mi Calm Calm - N/A   Clear
3:35 AM 34.0 °F - 34.0 °F 100% 30.36 in 7.0 mi Calm Calm - N/A   Clear
3:55 AM 33.8 °F - 33.8 °F 100% 30.36 in 7.0 mi Calm Calm - N/A   Clear
4:15 AM 33.6 °F - 33.6 °F 100% 30.36 in 7.0 mi Calm Calm - N/A   Clear
4:35 AM 33.3 °F - 33.3 °F 100% 30.36 in 7.0 mi Calm Calm - N/A   Clear
4:55 AM 33.1 °F - 33.1 °F 100% 30.37 in 7.0 mi Calm Calm - N/A   Clear
6:55 AM 32.0 °F - 32.0 °F 100% 30.40 in 7.0 mi Calm Calm - N/A   Clear
7:15 AM 32.0 °F - 32.0 °F 100% 30.40 in 7.0 mi Calm Calm - N/A   Clear
7:35 AM 32.0 °F 28.7 °F 32.0 °F 100% 30.41 in 7.0 mi WNW 3.5 mph - N/A   Clear
7:55 AM 32.4 °F - 32.4 °F 100% 30.42 in 5.0 mi Calm Calm - N/A   Clear
8:15 AM 33.3 °F - 33.3 °F 100% 30.43 in 5.0 mi Calm Calm - N/A   Clear
8:35 AM 35.8 °F - 35.8 °F 100% 30.43 in 5.0 mi Calm Calm - N/A   Clear
8:55 AM 38.5 °F - 38.5 °F 100% 30.44 in 7.0 mi Calm Calm - N/A   Clear
9:15 AM 41.4 °F - 41.4 °F 100% 30.43 in 10.0 mi Calm Calm - N/A   Clear
9:35 AM 43.7 °F - 43.5 °F 99% 30.44 in 10.0 mi Calm Calm - N/A   Clear
9:55 AM 45.3 °F - 44.4 °F 97% 30.44 in 10.0 mi Calm Calm - N/A   Clear
10:15 AM 47.1 °F - 45.1 °F 93% 30.44 in 10.0 mi Calm Calm - N/A   Clear
10:35 AM 49.1 °F - 44.4 °F 84% 30.44 in 10.0 mi Calm Calm - N/A   Clear
10:55 AM 51.3 °F - 44.6 °F 78% 30.44 in 10.0 mi Calm Calm - N/A   Clear
11:15 AM 53.4 °F - 43.9 °F 70% 30.44 in 10.0 mi Calm Calm - N/A   Clear
11:35 AM 55.2 °F - 41.4 °F 60% 30.43 in 10.0 mi Calm Calm - N/A   Clear
11:55 AM 56.5 °F - 41.4 °F 57% 30.43 in 10.0 mi Calm Calm - N/A   Clear
12:15 PM 57.2 °F - 41.7 °F 56% 30.42 in 10.0 mi Calm Calm - N/A   Clear
12:35 PM 57.7 °F - 41.7 °F 55% 30.41 in 10.0 mi Calm Calm - N/A   Clear
12:55 PM 58.8 °F - 40.5 °F 51% 30.40 in 10.0 mi Calm Calm - N/A   Clear
1:15 PM 59.7 °F - 39.4 °F 47% 30.39 in 10.0 mi Calm Calm - N/A   Clear
1:35 PM 60.1 °F - 39.6 °F 47% 30.38 in 10.0 mi Calm Calm - N/A   Clear
1:55 PM 60.3 °F - 39.7 °F 47% 30.38 in 10.0 mi Calm Calm - N/A   Clear
2:15 PM 61.0 °F - 39.2 °F 45% 30.36 in 10.0 mi East 3.5 mph - N/A   Clear
2:35 PM 61.2 °F - 39.4 °F 45% 30.35 in 10.0 mi Calm Calm - N/A   Clear
2:55 PM 61.3 °F - 39.6 °F 45% 30.34 in 10.0 mi Calm Calm - N/A   Clear
3:15 PM 61.7 °F - 40.1 °F 45% 30.34 in 10.0 mi Calm Calm - N/A   Clear
3:35 PM 61.5 °F - 39.9 °F 45% 30.34 in 10.0 mi Calm Calm - N/A   Clear
3:55 PM 62.1 °F - 39.6 °F 44% 30.33 in 10.0 mi Calm Calm - N/A   Clear
4:15 PM 61.9 °F - 39.4 °F 43% 30.33 in 10.0 mi Calm Calm - N/A   Clear
4:35 PM 61.7 °F - 39.9 °F 45% 30.33 in 10.0 mi Calm Calm - N/A   Clear
4:55 PM 62.1 °F - 39.2 °F 43% 30.33 in 10.0 mi Calm Calm - N/A   Clear
5:15 PM 60.8 °F - 41.9 °F 50% 30.33 in 10.0 mi Calm Calm - N/A   Clear
5:35 PM 57.9 °F - 45.5 °F 63% 30.33 in 10.0 mi Calm Calm - N/A   Clear
5:55 PM 54.0 °F - 46.2 °F 75% 30.33 in 10.0 mi Calm Calm - N/A   Clear
6:15 PM 51.3 °F - 47.5 °F 87% 30.33 in 10.0 mi Calm Calm - N/A   Clear
6:35 PM 48.7 °F - 46.6 °F 92% 30.33 in 10.0 mi Calm Calm - N/A   Clear
6:55 PM 46.9 °F - 45.9 °F 96% 30.32 in 10.0 mi Calm Calm - N/A   Clear
7:15 PM 46.0 °F - 45.5 °F 98% 30.32 in 10.0 mi Calm Calm - N/A   Clear
7:35 PM 45.3 °F - 45.3 °F 100% 30.33 in 10.0 mi Calm Calm - N/A   Clear
7:55 PM 44.6 °F - 44.6 °F 100% 30.32 in 10.0 mi Calm Calm - N/A   Clear
8:35 PM 43.3 °F - 43.3 °F 100% 30.32 in 10.0 mi Calm Calm - N/A   Clear
8:55 PM 42.6 °F - 42.6 °F 100% 30.32 in 10.0 mi Calm Calm - N/A   Clear
9:15 PM 42.1 °F - 42.1 °F 100% 30.33 in 10.0 mi Calm Calm - N/A   Clear
9:35 PM 41.7 °F - 41.7 °F 100% 30.32 in 10.0 mi Calm Calm - N/A   Clear
9:55 PM 41.2 °F - 41.2 °F 100% 30.32 in 10.0 mi Calm Calm - N/A   Clear
10:15 PM 40.6 °F - 40.6 °F 100% 30.32 in 10.0 mi Calm Calm - N/A   Clear
10:35 PM 40.5 °F - 40.5 °F 100% 30.32 in 10.0 mi Calm Calm - N/A   Clear
11:15 PM 39.2 °F - 39.2 °F 100% 30.31 in 10.0 mi Calm Calm - N/A   Clear
11:35 PM 39.2 °F - 39.2 °F 100% 30.30 in 7.0 mi Calm Calm - N/A   Clear
11:55 PM 38.7 °F - 38.7 °F 100% 30.30 in 7.0 mi Calm Calm - N/A   Clear